User: anonymous   Login
Location: Oshawa
(43.9000°N, 78.8670°W)
Time: 04:29:31
(UTC-04:00)
Language:

CARTOSAT-1 - Orbit

View from above orbital plane
View from above orbital plane
View from above satellite
View from above satellite

Ground track
Ground track

The orbit data is extracted from the following two-line orbital elements,

1 28649U 05017A   18114.84783366  .00000159  00000-0  25750-4 0  9990
2 28649  97.8252 188.7663 0003529  96.6666 263.4952 14.83470472702180
Epoch (UTC): 24 April 2018 20:20:52
Eccentricity: 0.0003529
inclination: 97.8252°
perigee height: 616 km
apogee height: 621 km
right ascension of ascending node: 188.7663°
argument of perigee: 96.6666°
revolutions per day: 14.83470472
mean anomaly at epoch: 263.4952°
orbit number at epoch: 70218

The dashed part of the orbit path shows where the satellite is in the earth's shadow,  

DLR